Theta_e
311 310 311 310 310 310 311 311 312 311 310 309 306 306 305 303 303 303 303 302 302 302 302 302 302 302 303 304 304 305 306 308 310 312 315 320 315 315 314 316 316 319 324 330 344 351 352 350 348 348 347 348 351 349 348 350 351 356 365 366 361 361 359 356 356 345 341 352 355 354 355 360 361 358 357 355 357 357 356 356 356 355 353 353 352 352 351 351
311 310 310 310 311 311 311 311 308 306 307 307 306 305 305 305 304 304 304 303 303 302 302 302 302 303 303 304 305 306 309 310 314 316 321 317 318 315 314 314 314 320 326 338 349 351 353 350 348 349 347 349 354 352 351 351 354 360 363 363 362 363 360 353 350 346 341 348 354 354 355 358 359 358 356 359 360 357 358 357 357 358 354 352 352 351 351 350
310 310 310 310 311 311 310 308 306 307 307 307 306 305 305 305 305 305 304 304 304 303 303 302 302 303 303 304 306 308 312 315 320 325 321 318 322 319 318 314 314 320 324 334 343 347 351 348 348 350 349 352 357 355 353 354 359 359 359 362 363 358 354 350 348 350 345 346 353 355 355 357 356 356 355 359 359 357 359 359 359 360 355 353 352 351 351 349
310 310 310 310 310 310 308 307 307 310 309 306 305 304 305 305 305 305 305 305 304 304 303 303 303 303 304 305 306 309 314 321 323 318 319 323 323 320 323 319 316 320 323 328 335 345 348 346 347 349 351 355 357 357 356 357 361 360 361 363 361 354 353 351 348 351 347 345 353 356 355 357 355 354 355 357 360 359 358 356 358 359 355 354 352 351 351 349
310 310 310 310 310 309 308 308 309 309 307 306 304 304 304 304 305 305 305 305 305 304 304 303 304 304 305 307 309 314 317 320 316 318 321 324 320 318 324 321 319 323 326 331 339 345 346 344 347 347 351 356 356 358 359 357 357 358 361 362 358 356 356 352 347 346 347 350 355 355 355 356 354 354 353 356 362 361 355 354 354 355 354 353 352 351 351 350
310 310 310 310 310 309 309 309 309 308 307 305 304 304 304 304 305 305 305 306 305 305 304 305 305 304 306 308 313 318 320 313 315 319 319 323 318 317 325 323 323 327 328 335 341 343 344 344 347 349 351 355 356 357 357 354 355 358 358 356 355 356 355 351 346 345 349 354 354 354 354 354 355 356 354 354 359 357 352 352 352 353 353 352 352 352 351 350
310 310 310 310 309 309 308 309 309 308 306 304 304 304 304 304 304 305 306 306 306 306 307 306 305 306 307 311 317 320 321 317 317 317 318 320 316 319 326 323 326 330 329 335 339 340 344 345 348 351 352 355 356 355 354 352 353 357 356 351 350 349 349 347 344 344 349 354 352 352 355 356 356 357 354 353 355 356 353 351 352 352 352 352 352 351 351 351
310 310 310 310 309 308 308 309 308 307 305 304 304 303 304 304 304 305 306 306 307 307 308 308 307 307 307 313 320 319 319 320 315 316 317 317 318 322 325 325 329 330 331 336 338 340 343 345 348 350 354 356 355 353 353 354 353 354 354 351 348 348 347 345 344 344 345 348 348 351 357 356 354 355 355 353 354 356 353 352 352 352 352 352 352 352 352 351
309 310 310 310 309 307 307 308 307 305 305 305 304 304 304 305 305 306 307 307 308 308 309 309 309 308 308 315 321 313 315 317 314 319 320 320 320 321 323 325 330 330 334 338 337 340 343 345 347 349 353 353 352 351 352 355 355 353 351 349 347 347 346 345 344 344 344 343 343 350 356 354 353 356 357 354 355 355 353 353 353 353 353 353 352 352 352 352
310 310 310 309 308 307 307 307 305 304 305 305 304 304 304 305 306 307 307 308 308 308 309 310 310 310 312 318 320 312 315 316 318 322 322 322 321 321 322 322 326 330 335 336 335 340 342 343 345 344 345 344 343 347 348 351 352 349 348 347 348 347 345 344 344 343 342 341 342 348 353 352 352 356 359 357 354 353 353 354 353 353 353 353 352 352 352 352
309 309 309 309 308 308 307 306 304 304 304 304 304 304 305 306 307 307 308 308 309 309 310 310 310 310 314 322 319 310 317 317 320 321 320 323 323 321 321 321 323 329 332 331 332 337 338 338 340 339 339 339 338 340 343 345 345 346 344 341 340 338 337 337 337 336 334 339 343 344 349 350 348 351 357 357 353 353 355 355 353 354 354 353 353 352 353 352
309 309 309 308 308 308 307 306 304 304 304 304 304 305 306 307 307 309 310 311 311 311 310 312 311 311 317 324 321 312 313 318 320 321 322 323 323 322 321 320 322 326 329 329 330 333 334 334 335 337 338 339 338 337 338 339 337 338 335 331 331 328 328 328 329 330 332 339 342 341 345 347 346 348 356 356 352 354 355 355 354 354 354 353 353 352 353 352
309 309 308 308 308 308 307 306 304 304 304 304 305 306 306 307 310 314 316 317 316 313 311 312 312 313 319 322 317 313 312 317 318 317 319 317 317 321 324 322 322 325 326 326 328 329 329 329 332 336 334 337 340 336 335 335 333 335 332 328 329 327 326 328 329 330 333 336 339 341 339 343 346 347 358 357 352 355 355 355 355 354 354 353 354 353 353 352
309 309 308 308 308 308 307 305 303 304 304 304 306 306 307 311 316 317 317 318 317 313 312 313 312 314 321 318 312 314 312 313 315 314 315 314 314 320 325 326 326 326 324 325 326 327 327 325 326 330 329 332 336 333 333 333 330 333 331 328 327 323 325 329 330 332 334 333 338 341 333 338 344 345 356 355 351 356 356 356 355 354 354 353 354 353 353 353
308 308 308 308 308 307 306 304 303 303 303 305 307 306 310 316 317 315 315 315 315 315 315 315 315 318 321 317 314 317 316 314 314 314 313 314 317 321 324 326 329 328 326 326 324 326 327 324 324 326 327 331 331 329 332 333 329 330 328 327 326 321 324 330 329 330 332 332 337 338 332 337 340 343 355 354 352 356 355 356 355 354 355 353 354 354 353 353
307 307 307 306 306 306 305 304 303 303 303 306 306 308 314 318 314 313 314 313 313 314 316 318 318 322 323 316 315 319 321 320 318 318 317 315 316 320 323 325 329 330 329 327 325 325 325 325 327 328 327 329 330 329 330 329 330 332 328 324 324 321 322 327 328 329 330 335 338 336 336 344 345 347 355 354 352 355 355 356 355 354 355 354 354 354 353 353
307 306 305 305 305 305 304 303 303 302 304 306 306 311 318 316 315 316 316 315 315 317 318 320 319 322 322 312 316 319 320 322 321 323 324 321 316 317 322 324 327 328 327 326 325 325 326 327 330 330 328 327 331 331 325 321 325 331 326 321 322 322 321 321 327 330 331 338 341 337 338 347 355 354 355 355 353 355 355 356 355 354 354 354 354 353 353 353
307 306 306 306 306 305 303 303 303 302 305 306 307 315 320 318 318 319 319 320 321 321 322 322 319 322 320 315 319 320 319 320 322 322 325 325 320 316 320 324 325 326 326 326 326 326 327 328 329 331 330 328 330 328 320 321 328 329 324 321 321 322 321 321 325 328 330 337 342 341 338 343 356 356 354 355 353 354 355 354 354 354 354 354 354 353 354 353
307 306 306 306 305 304 303 303 302 303 306 307 309 315 319 319 320 321 320 320 320 321 324 325 322 319 317 318 318 318 318 319 321 322 323 325 321 316 317 321 324 326 327 328 327 326 327 328 327 328 329 327 328 325 323 327 332 330 327 324 321 319 321 323 325 327 328 331 338 343 338 340 355 358 355 355 354 354 355 355 354 354 354 354 353 353 353 353
307 307 306 305 304 303 303 302 302 304 305 306 309 312 313 313 317 320 315 312 313 314 316 321 323 322 320 319 317 319 319 320 322 323 324 324 320 316 317 321 325 327 328 330 327 325 327 328 327 326 328 328 327 326 327 330 330 329 327 323 321 319 319 323 326 327 326 328 336 345 342 340 352 357 356 354 355 356 355 356 355 354 354 354 354 353 353 353
306 306 305 304 304 303 303 302 302 305 305 306 309 310 309 309 312 313 308 308 309 310 311 312 316 319 320 318 317 319 320 321 322 322 322 322 319 318 319 321 324 326 328 330 326 324 326 328 327 327 329 330 329 328 328 329 328 328 326 323 321 320 320 323 324 326 328 328 334 342 342 340 349 355 356 355 355 356 355 355 355 355 354 353 354 353 353 353
304 305 305 304 304 303 303 302 303 305 304 305 309 309 308 307 308 308 306 309 310 309 311 311 312 314 315 316 317 317 318 320 320 318 320 321 319 322 322 319 322 324 326 328 327 324 324 326 327 328 330 331 330 329 328 328 328 326 324 321 319 321 322 324 324 325 327 326 328 334 332 334 346 353 355 355 355 355 354 354 354 354 354 354 354 353 353 353
304 304 304 303 304 303 303 302 303 304 302 305 307 308 308 306 307 307 306 309 311 310 311 311 311 312 312 313 314 316 317 317 318 318 320 321 320 322 322 319 321 324 325 327 328 325 322 324 327 328 328 329 329 328 326 326 326 324 323 319 317 322 321 321 324 326 326 324 329 335 333 341 355 357 356 354 354 355 353 353 354 353 354 354 353 353 353 354
303 303 303 303 303 303 302 302 304 303 302 304 307 307 307 306 307 308 309 312 313 312 312 312 312 312 313 313 313 316 316 316 317 318 320 322 321 321 320 319 321 323 325 326 327 326 324 323 326 326 326 328 327 327 328 325 324 324 324 320 319 322 321 321 325 327 327 325 330 331 328 343 361 359 359 355 352 354 353 353 354 352 353 352 352 352 352 353
303 303 303 303 303 303 302 302 304 303 303 305 307 306 305 305 307 308 310 315 316 313 313 313 312 312 313 313 314 316 316 317 317 317 320 323 321 321 321 319 320 322 324 325 326 326 325 325 324 324 326 327 326 326 327 325 323 322 324 324 323 324 323 323 324 323 321 319 328 326 318 334 358 355 356 357 354 355 353 353 354 353 353 352 353 352 351 352
303 303 303 303 303 302 303 304 304 303 304 306 306 305 306 306 307 308 310 315 319 317 315 314 314 314 314 314 315 316 317 318 317 316 320 323 321 322 322 320 320 322 322 324 325 324 324 324 323 324 325 325 326 325 325 326 322 319 325 327 326 325 323 323 322 319 317 318 330 331 319 327 344 346 352 357 356 357 354 354 353 352 353 352 352 351 351 351
303 303 303 303 303 303 304 305 304 304 306 306 307 307 307 307 308 309 312 318 322 320 317 314 314 315 313 314 315 317 318 318 317 317 319 322 322 321 323 322 320 321 321 323 322 321 324 324 323 324 324 324 324 322 324 326 321 319 327 330 328 327 324 323 322 318 320 322 326 329 324 320 322 334 349 355 357 358 356 355 353 352 352 351 351 350 350 350
303 303 303 303 303 303 304 305 305 305 306 306 307 308 308 308 309 311 314 321 326 323 319 314 314 314 313 313 315 316 317 317 316 317 318 321 322 321 323 322 320 321 322 322 319 321 324 324 323 324 323 323 322 322 325 325 322 323 327 328 327 326 324 324 321 319 322 320 314 320 324 318 318 336 349 350 355 358 356 356 353 352 352 350 351 350 349 350
302 303 303 303 303 303 304 305 305 305 305 306 307 308 308 309 310 313 317 322 324 320 318 315 314 313 312 313 315 315 314 314 315 316 317 321 322 322 323 322 321 322 322 321 321 323 324 323 323 323 322 323 322 324 326 323 324 326 325 325 325 323 324 326 322 318 319 317 313 316 319 315 318 333 342 342 349 353 355 355 352 351 351 350 350 349 349 349
302 303 303 303 303 303 304 305 305 305 305 306 307 308 309 311 313 316 321 323 321 319 317 316 315 313 312 313 313 314 313 314 315 315 317 320 321 321 321 322 323 322 322 322 322 324 325 323 324 323 322 323 323 324 324 323 325 325 325 325 323 324 325 329 330 321 315 314 314 315 318 316 315 324 336 341 346 351 352 354 352 350 349 349 350 349 348 348
302 302 303 303 303 304 305 306 304 304 305 306 308 309 310 314 318 321 324 321 317 319 319 317 315 314 315 314 313 314 314 313 314 315 317 319 320 322 321 322 323 322 321 321 321 323 323 324 326 326 325 323 323 323 322 323 323 324 326 323 321 324 322 319 321 319 314 313 314 316 320 317 312 319 335 341 343 347 348 350 351 350 348 348 348 347 348 348
302 302 303 303 303 304 305 306 304 305 306 306 309 312 310 312 315 318 321 318 316 317 317 316 315 315 316 315 315 315 314 314 315 315 316 317 320 322 322 322 321 319 318 317 319 321 321 323 325 325 326 324 323 323 321 321 322 323 325 320 317 320 318 315 316 317 315 315 317 319 318 315 314 323 339 342 339 341 343 346 348 348 348 346 346 346 346 346
302 302 303 303 304 304 304 305 304 304 307 308 311 314 312 313 316 315 315 316 316 315 315 315 315 315 315 316 317 316 314 315 315 315 315 316 320 321 322 324 323 322 321 318 316 317 318 321 323 321 324 325 323 322 319 319 322 321 320 318 317 317 316 317 319 318 316 316 319 321 318 316 318 327 337 336 337 339 339 341 344 345 347 346 345 345 345 346
302 303 303 303 304 304 303 304 304 304 308 309 312 314 313 314 318 317 315 315 315 314 315 317 316 316 317 317 316 314 314 315 314 315 317 317 318 321 322 322 322 325 327 320 316 317 316 318 322 321 322 325 324 323 322 323 322 320 321 320 317 318 318 318 318 317 319 320 319 317 317 318 318 326 337 330 330 338 337 338 341 342 343 343 343 343 343 345
302 303 303 303 305 304 303 304 303 304 308 311 312 313 313 313 315 317 317 317 315 315 316 316 315 316 318 318 316 315 316 316 315 314 316 319 319 320 322 322 322 324 324 319 317 318 315 317 324 322 321 325 325 324 325 325 321 319 322 320 315 319 319 317 319 319 318 316 317 317 321 328 327 330 339 331 327 335 337 338 339 339 341 340 341 343 342 344
302 303 302 303 304 303 303 304 304 305 309 312 312 312 311 311 313 316 317 316 315 316 316 317 317 316 319 320 316 316 317 316 316 315 314 318 320 320 322 322 322 323 322 320 320 319 314 317 323 320 321 324 324 326 324 322 322 320 318 316 318 321 318 315 317 318 314 312 318 320 321 327 327 328 339 336 330 334 337 339 339 337 340 340 339 341 340 342
303 303 303 303 304 303 303 304 304 306 310 313 314 314 311 310 312 315 316 315 315 316 317 319 320 317 318 321 317 315 317 317 317 316 315 317 318 318 320 322 321 321 321 320 321 322 318 318 323 321 320 321 322 325 324 323 325 320 316 317 319 321 320 318 316 314 314 314 317 318 317 319 318 325 342 342 334 336 335 338 340 339 339 340 339 340 340 340
303 303 304 304 303 303 304 304 305 308 313 315 316 318 316 313 314 315 315 315 316 317 317 318 320 316 316 320 318 315 316 319 318 316 317 318 317 315 316 320 319 317 318 318 319 324 320 316 320 322 322 321 321 323 322 321 323 320 320 322 322 318 315 317 317 315 315 315 316 318 320 319 316 324 339 338 336 340 337 337 339 339 340 340 339 340 340 339
303 304 306 304 302 303 304 304 306 310 315 316 316 317 317 316 315 315 315 316 317 317 317 317 317 316 317 318 316 315 316 318 318 317 318 317 316 315 314 315 316 316 318 319 319 323 322 317 318 321 322 321 321 320 317 318 321 321 321 320 321 320 315 315 317 317 316 316 316 316 316 316 320 331 339 339 342 343 337 338 339 337 339 339 338 340 339 339
303 305 306 303 302 304 304 307 310 314 317 318 317 316 315 315 315 314 314 315 316 316 317 317 316 316 317 316 315 315 316 317 317 318 318 316 316 315 313 313 314 315 317 319 321 323 321 319 317 320 320 318 318 319 318 318 319 318 318 316 315 317 316 315 315 315 316 316 316 315 311 314 327 341 338 338 347 345 338 339 338 336 337 338 338 339 339 339
303 304 305 302 302 303 305 309 312 313 315 315 313 312 311 313 313 312 311 312 314 314 315 315 315 315 315 315 314 315 317 318 318 318 317 316 316 315 313 312 312 314 319 326 328 326 325 322 315 315 316 314 317 321 320 322 321 319 318 316 315 315 315 314 314 315 314 315 319 318 310 313 332 341 337 338 344 344 342 338 336 337 336 337 339 338 339 340
303 303 304 302 303 303 305 309 308 307 309 309 308 308 309 311 311 310 309 309 310 312 313 312 313 314 313 314 315 315 317 320 320 319 318 315 314 313 312 312 312 316 322 328 328 326 327 326 317 315 317 318 321 323 320 321 322 321 321 320 319 318 314 312 313 315 314 314 320 320 312 319 339 340 336 343 345 343 343 338 337 338 334 336 338 337 339 340
302 303 303 302 303 303 307 309 307 306 307 307 307 307 307 309 309 309 309 309 309 310 311 311 311 312 312 313 315 314 315 319 319 318 317 315 313 312 312 311 312 317 323 327 328 326 327 327 321 318 322 322 322 324 323 323 322 319 320 321 319 318 316 315 319 321 317 313 316 318 312 320 343 347 337 339 343 340 337 335 337 339 335 336 337 337 340 342
302 303 304 303 303 304 307 307 306 306 307 307 306 306 306 307 308 308 309 309 309 309 309 311 311 310 311 312 314 314 315 318 318 315 314 314 314 312 312 312 312 316 322 325 326 323 325 330 323 317 318 317 317 321 320 321 321 320 322 322 319 321 319 317 321 322 317 314 315 315 312 321 349 356 339 335 338 337 334 334 335 338 338 337 338 339 341 342
303 304 305 304 303 305 306 305 305 306 306 307 306 305 306 307 307 307 308 308 308 308 308 309 309 310 310 311 313 313 312 315 317 314 312 313 314 312 312 312 312 315 320 322 322 320 325 332 326 318 319 316 316 321 321 320 321 322 323 322 321 322 318 316 317 314 315 320 317 313 316 331 351 347 335 334 336 336 335 335 335 339 340 339 342 343 344 345
303 303 304 304 304 305 305 304 304 305 306 306 306 305 305 306 307 307 308 308 308 307 307 308 309 309 309 311 313 313 311 312 313 314 313 312 312 311 311 312 312 316 320 319 318 320 327 334 329 323 324 322 321 325 326 324 322 320 321 321 321 322 321 318 314 312 319 325 317 316 325 330 331 331 333 336 336 335 337 335 338 346 343 339 342 344 345 346
303 302 303 304 304 305 305 304 304 305 305 305 306 306 306 306 307 307 308 308 307 307 307 308 308 308 309 310 312 313 312 312 312 313 312 311 311 310 310 312 313 316 318 315 316 323 327 330 329 326 326 325 323 323 322 323 323 322 322 322 320 322 322 318 314 316 327 322 313 323 334 323 322 335 339 338 339 340 342 338 337 341 340 339 342 343 345 345
303 303 304 304 305 305 305 304 304 305 305 305 306 306 306 306 306 307 307 306 306 307 308 309 308 308 308 309 311 313 313 313 313 313 311 311 312 311 310 312 312 314 314 312 314 319 323 327 327 323 322 322 320 321 321 321 323 323 323 322 320 320 320 317 316 321 328 318 312 327 336 325 328 341 339 339 345 341 341 341 336 333 335 341 344 343 343 341
303 304 304 304 304 304 304 303 304 305 304 305 306 306 306 306 306 306 306 306 306 307 308 309 308 307 307 308 310 313 313 312 313 313 312 312 312 311 312 313 312 312 311 311 313 316 322 329 328 320 320 321 320 321 322 322 322 322 322 322 320 320 320 318 320 323 325 322 320 330 336 330 329 333 333 336 339 335 336 339 336 335 338 344 345 342 340 339
304 304 304 304 303 304 304 304 304 305 304 305 306 306 305 306 306 306 306 306 307 307 306 307 307 307 307 308 309 311 311 311 312 312 311 312 311 311 313 314 313 311 310 311 314 315 319 325 324 320 321 322 321 322 322 320 322 321 322 323 321 320 320 318 320 322 322 323 325 328 332 332 332 335 335 333 333 331 331 333 336 338 342 345 345 342 341 342
303 303 303 303 304 304 305 305 305 305 304 305 306 306 304 305 305 305 305 306 307 307 306 306 307 307 307 307 308 309 309 309 310 310 310 310 310 311 312 312 311 310 312 313 314 316 319 322 324 322 323 324 323 322 320 319 321 321 321 325 324 320 320 318 320 324 322 322 324 322 322 326 333 337 335 332 332 331 330 332 334 337 344 353 355 350 349 351
303 303 303 303 304 304 305 305 305 305 304 304 305 305 304 304 304 304 305 307 306 306 306 306 307 307 307 307 307 308 308 308 309 309 309 309 309 309 310 310 310 310 312 313 314 317 320 321 322 323 326 328 323 318 320 321 323 322 319 322 325 322 322 321 321 325 325 323 322 320 319 325 332 335 333 330 330 330 330 331 332 335 345 356 360 360 359 358
Wind_Speed
22 23 23 22 23 24 25 25 25 25 25 24 24 24 23 24 24 25 24 23 23 22 21 20 20 21 21 21 20 20 21 21 20 12 9 21 30 27 22 18 10 13 19 16 24 25 16 14 16 18 14 8 3 3 5 4 2 3 2 2 4 3 3 4 4 3 1 1 8 11 11 13 10 7 4 6 5 6 7 2 4 4 5 9 16 26 28 28
23 23 24 24 24 25 25 25 26 27 26 26 26 26 25 26 26 26 25 24 23 22 22 21 20 20 20 20 19 19 20 19 16 13 21 26 25 26 26 24 17 15 20 24 30 26 16 12 14 14 9 5 3 5 6 4 3 4 2 2 5 4 4 4 3 3 3 2 9 10 10 11 12 10 6 6 6 8 7 3 5 6 8 12 20 28 28 27
24 24 24 25 26 26 26 27 28 28 27 27 27 27 27 27 27 27 26 25 24 23 22 21 20 19 19 18 16 16 15 13 9 11 18 14 9 14 20 23 21 20 21 25 31 28 19 16 18 12 7 5 3 5 7 5 4 4 3 3 6 6 6 5 5 6 5 5 10 9 7 7 9 9 6 7 9 10 8 7 8 7 10 13 17 23 27 26
25 25 25 25 27 27 27 28 28 27 28 28 28 29 29 29 29 28 27 25 25 24 23 21 19 18 18 16 14 13 10 6 5 7 6 2 5 9 10 22 24 23 21 24 29 28 23 19 17 10 6 4 2 4 7 6 4 3 5 6 5 4 5 6 3 6 4 7 9 8 7 5 7 6 6 11 10 6 8 11 14 15 16 16 17 20 24 24
25 25 25 26 27 27 27 28 28 28 29 30 30 31 31 31 32 29 28 26 26 24 23 21 18 17 17 13 10 9 4 2 5 5 3 4 11 17 7 22 27 26 23 25 25 25 24 17 12 8 4 4 4 4 6 9 5 3 9 9 6 4 5 4 1 3 1 6 6 7 8 6 7 5 9 15 12 8 12 15 15 18 20 20 20 20 21 20
26 25 25 27 27 27 27 28 28 29 30 32 32 33 33 33 32 30 29 28 26 24 22 20 16 15 15 10 5 3 0 2 7 4 4 11 19 20 5 24 30 28 26 26 24 20 17 13 10 8 5 4 7 7 4 9 9 5 7 8 9 8 9 6 1 1 3 8 7 8 8 7 8 7 10 16 12 5 9 13 13 17 21 22 22 20 20 19
26 26 26 27 26 27 28 29 28 29 31 33 35 36 35 34 33 31 30 28 26 23 21 18 14 13 12 6 1 1 1 6 16 13 12 18 19 13 8 29 32 29 26 24 20 15 12 12 11 8 6 4 6 8 4 5 9 9 8 6 7 8 11 10 3 3 4 7 9 7 7 10 13 8 8 15 9 2 4 10 10 13 19 21 20 19 20 20
26 26 27 27 27 29 30 30 29 31 34 36 38 38 36 36 35 33 30 28 26 22 20 16 12 11 8 2 1 2 1 13 23 18 16 15 9 0 19 31 31 29 26 24 20 15 13 13 12 7 6 6 4 5 5 4 6 10 10 6 6 8 10 11 7 5 6 8 7 8 9 14 15 7 10 17 7 3 8 12 12 13 15 18 18 19 18 17
28 27 27 28 28 31 33 32 32 35 37 38 40 40 38 37 35 33 30 27 24 21 19 15 11 7 4 1 1 3 6 12 15 11 11 9 3 12 27 31 31 28 24 25 23 18 13 11 12 7 4 6 4 3 5 5 5 8 10 8 8 10 11 11 10 7 7 6 6 10 11 15 11 6 8 13 6 7 11 13 14 15 16 16 16 17 17 16
29 28 28 29 30 33 35 34 37 39 40 41 42 41 40 38 35 32 29 26 23 21 18 13 9 4 3 3 3 4 8 4 2 3 3 7 10 20 27 29 34 29 21 19 19 18 11 10 12 7 2 3 4 4 5 5 4 5 7 9 11 12 12 9 10 11 5 5 10 13 14 14 8 5 7 6 8 11 12 13 15 16 16 16 16 15 16 16
30 29 29 30 31 34 36 37 40 42 43 44 44 42 41 36 33 31 29 27 24 21 16 9 7 8 7 4 4 6 5 2 2 6 5 6 13 22 25 29 35 29 21 14 15 22 17 14 14 5 2 3 3 3 5 6 4 6 6 8 11 9 10 9 9 10 3 4 12 14 12 10 6 6 8 6 11 14 15 14 15 16 14 14 15 14 13 13
30 30 31 31 32 33 35 39 42 44 45 45 44 42 38 35 33 32 28 26 22 19 13 9 10 12 7 2 8 15 8 5 6 9 10 6 5 12 19 27 33 30 25 14 13 26 22 18 17 7 5 4 2 1 4 5 3 6 5 7 10 7 9 9 7 6 3 4 8 9 2 4 9 11 7 9 12 14 15 15 14 15 13 13 14 13 11 12
30 31 31 32 33 33 36 40 44 46 46 46 44 39 36 35 31 25 22 19 16 12 10 12 14 14 7 1 10 18 15 11 9 6 7 8 7 7 13 21 29 28 26 20 19 27 23 17 19 11 5 4 3 2 2 2 0 4 3 3 6 6 8 7 3 3 1 4 9 10 0 6 15 13 8 11 13 14 14 14 14 13 12 12 12 11 11 13
31 31 32 33 33 34 37 42 46 46 47 47 41 37 35 30 22 17 15 12 8 7 10 13 17 15 5 7 9 10 15 17 17 20 23 17 11 10 11 15 23 24 21 17 14 20 20 14 11 5 2 2 2 4 5 3 2 3 3 2 2 2 6 5 1 2 2 3 12 12 4 8 13 11 10 13 15 17 15 14 14 13 11 11 12 11 11 13
33 32 33 33 34 36 39 44 47 46 48 44 37 35 30 20 15 13 9 5 2 10 13 15 16 11 1 9 12 9 12 15 19 27 25 14 11 10 12 16 20 23 20 13 6 7 16 11 4 1 2 3 2 4 4 4 2 1 1 4 2 2 5 8 3 4 3 4 10 11 5 6 9 10 12 13 15 16 15 15 15 14 14 13 12 12 11 11
35 34 35 36 38 40 42 47 47 47 48 40 35 31 19 12 11 11 11 11 10 14 15 11 10 6 1 5 5 3 6 9 14 21 20 17 16 12 14 15 13 17 15 9 6 7 12 10 3 3 3 2 3 3 2 3 4 1 2 4 4 3 4 7 5 4 5 3 6 9 5 4 5 8 12 14 16 16 14 15 16 15 15 14 12 12 11 10
35 36 37 38 40 42 46 48 46 49 45 35 34 23 8 7 9 12 15 16 15 14 10 6 9 4 4 5 2 3 4 8 10 9 9 16 22 16 14 10 6 10 8 4 6 6 7 5 2 3 3 3 4 5 3 6 6 2 1 3 4 3 3 4 6 3 2 3 6 10 9 5 4 7 14 15 16 16 14 15 16 15 14 13 12 11 11 12
34 36 36 37 40 44 49 48 47 49 40 33 31 14 4 5 6 9 11 13 10 7 5 2 7 2 5 5 2 3 2 3 5 5 5 9 17 20 14 7 6 10 7 4 4 5 3 2 3 2 3 5 4 6 7 6 5 4 3 3 4 3 4 5 5 4 2 1 5 7 10 10 5 5 13 15 17 16 15 16 15 14 14 13 12 12 12 13
34 34 35 38 41 47 49 46 49 45 33 32 25 7 6 6 0 1 3 4 3 2 0 2 6 1 3 4 4 5 6 5 6 7 6 7 13 18 12 5 7 10 6 2 3 5 4 1 3 5 5 7 7 9 9 4 5 6 6 4 4 4 5 5 5 5 4 4 5 5 9 12 6 7 11 13 15 15 13 12 12 12 12 12 12 11 12 14
33 34 38 41 44 49 48 47 48 35 28 33 22 6 6 7 3 3 5 6 5 7 7 6 8 6 8 6 1 3 7 6 5 4 6 10 14 13 6 3 5 4 5 6 4 4 6 4 6 8 7 8 8 8 8 5 5 5 4 3 4 5 7 5 5 7 3 3 7 5 8 11 7 7 11 12 13 13 12 11 11 12 12 12 13 13 14 15
36 37 40 43 46 49 46 48 41 24 26 30 17 7 4 4 4 4 8 11 11 10 13 14 13 14 15 10 2 3 5 3 5 4 5 10 16 12 4 5 6 4 5 7 5 2 5 8 10 9 8 8 8 7 8 7 6 6 6 5 5 7 8 4 4 7 4 2 6 5 6 9 7 7 8 9 13 14 15 15 15 16 15 13 14 16 15 13
41 40 43 45 48 48 47 47 31 17 27 25 12 7 4 4 5 6 6 9 12 10 15 17 14 17 19 20 17 4 2 4 8 9 7 9 11 9 6 7 9 7 6 6 4 3 5 9 9 9 8 7 7 7 9 9 7 6 5 5 6 6 6 4 4 6 3 3 7 7 7 9 7 7 10 12 15 15 15 17 18 19 17 15 16 16 15 12
42 43 45 45 48 48 47 41 21 17 31 24 8 4 4 7 12 9 4 6 12 9 12 14 14 15 15 17 18 11 6 7 7 9 10 14 7 7 8 10 11 8 7 9 8 7 6 7 8 11 9 8 7 6 8 7 6 5 5 5 7 5 2 3 4 4 2 4 5 4 4 6 4 4 9 13 14 11 10 13 12 13 16 18 18 17 15 16
42 44 44 46 48 48 47 33 15 22 35 22 4 3 7 15 18 12 3 4 8 7 10 14 11 10 12 10 12 16 10 8 7 8 13 17 6 5 9 10 11 8 9 13 12 9 7 6 7 12 11 11 8 6 8 6 5 5 6 8 8 5 3 4 3 5 5 3 3 1 3 6 2 5 8 10 11 10 9 11 10 10 13 13 13 13 14 15
43 43 44 47 46 48 44 21 11 29 34 12 4 3 17 23 20 13 3 2 6 6 6 8 5 6 9 8 13 15 6 5 10 9 11 17 12 6 6 6 7 10 13 13 10 9 9 5 6 11 10 11 11 8 8 8 5 6 8 11 10 5 3 4 1 5 5 5 5 2 2 6 3 5 7 6 9 12 11 12 15 14 12 12 11 12 13 13
43 43 45 46 45 49 35 9 15 32 23 5 5 18 27 26 23 12 1 1 5 5 2 2 2 5 8 7 9 9 4 5 11 11 9 15 16 7 5 5 3 10 12 8 5 4 6 5 7 10 10 10 11 9 8 9 6 7 7 9 8 6 5 5 2 0 2 5 5 2 3 5 5 5 8 6 10 15 12 13 16 14 12 13 13 13 13 13
43 43 45 45 46 43 20 7 23 24 8 8 22 29 29 27 23 8 1 3 4 3 3 0 1 6 7 6 10 9 4 3 3 10 12 16 15 6 6 8 4 7 7 4 3 3 6 9 8 9 9 9 10 8 8 11 8 6 4 9 8 7 7 6 5 4 4 4 5 3 4 5 6 6 8 8 10 12 12 14 15 14 14 15 15 14 14 15
42 44 44 45 46 34 13 13 22 13 7 20 30 31 30 27 16 1 1 3 4 2 3 1 0 5 2 4 11 7 3 1 3 6 11 17 15 5 7 11 9 10 9 8 8 4 8 12 13 13 9 7 8 7 10 12 8 4 6 8 6 7 6 5 5 5 3 1 7 6 5 5 7 6 4 7 10 11 14 17 16 15 17 17 17 16 16 16
43 44 44 47 44 30 17 16 14 13 21 28 29 31 29 20 7 2 2 2 4 1 1 1 1 1 3 4 8 6 4 2 2 2 7 13 11 4 5 9 10 9 9 12 10 4 6 11 15 13 9 8 7 7 11 13 9 4 4 2 1 2 2 3 4 3 0 2 10 8 5 4 7 4 2 4 8 11 13 15 16 16 16 16 17 17 17 15
43 43 45 46 39 29 23 18 14 21 30 29 29 30 21 8 1 3 2 4 3 2 1 2 2 2 3 5 5 7 5 4 3 3 6 6 5 3 2 4 6 5 5 9 9 5 2 4 9 9 8 10 8 7 9 12 9 4 4 3 2 2 4 3 1 2 1 7 10 9 7 5 6 4 6 5 7 11 12 11 13 15 15 16 15 15 16 15
43 44 45 41 33 25 16 14 21 29 30 28 28 21 9 1 2 3 5 3 3 2 3 4 3 4 2 2 3 4 5 5 2 4 5 4 4 4 3 4 4 4 4 5 7 7 4 1 4 4 7 9 7 6 7 8 9 5 4 4 2 4 3 1 2 3 5 9 5 7 7 7 8 5 6 8 9 13 14 13 15 18 19 18 16 16 17 16
43 44 44 37 29 20 10 14 27 33 29 26 20 9 2 1 1 5 5 4 3 2 3 2 2 5 3 3 3 5 4 3 3 5 6 6 7 8 7 7 6 5 6 7 5 5 6 5 4 3 5 9 8 5 4 4 7 6 4 6 4 2 1 2 2 2 7 7 2 5 6 6 9 5 6 10 11 13 14 14 16 19 21 19 17 17 16 15
43 43 41 32 22 15 14 20 29 30 28 20 10 3 4 2 4 6 5 3 1 2 2 2 5 5 4 3 3 4 3 3 4 5 5 5 7 9 7 6 9 7 4 6 5 3 4 5 5 4 3 7 10 7 5 3 5 8 6 6 6 4 3 5 5 3 4 4 3 4 5 3 7 4 8 13 13 14 15 15 16 18 20 20 20 19 17 17
44 41 36 25 14 15 22 25 26 26 22 12 3 2 2 5 4 2 4 3 1 3 4 3 6 6 3 2 3 3 0 2 1 3 6 5 5 8 6 4 8 7 4 4 5 5 7 5 7 11 5 7 12 10 8 7 6 7 6 6 5 5 6 5 4 4 4 4 3 2 4 5 5 4 8 13 14 14 14 15 16 16 17 18 17 17 17 17
43 39 33 19 11 21 28 26 27 23 14 6 2 1 5 6 2 1 1 3 2 4 6 7 5 3 3 3 3 5 2 2 5 2 4 6 6 6 6 5 7 6 5 4 3 4 9 8 6 9 7 11 13 9 8 9 5 5 5 6 6 6 5 3 4 6 3 1 2 2 3 6 5 4 6 7 10 12 13 14 15 15 16 14 13 13 14 15
41 37 30 15 12 26 30 28 28 19 6 3 0 4 5 3 1 0 1 3 2 4 8 7 2 1 4 3 3 7 4 3 6 4 1 4 4 1 3 4 5 7 6 5 4 3 6 7 2 4 5 11 14 10 9 8 5 3 4 7 6 5 6 4 4 2 1 2 4 3 4 6 4 6 6 6 7 9 12 13 14 16 16 14 12 11 13 15
38 33 22 11 16 28 31 30 26 11 0 1 3 5 3 1 1 1 3 4 3 4 4 3 2 1 2 2 3 7 7 4 5 4 1 1 2 5 4 4 3 2 2 2 4 4 4 5 3 7 8 10 9 11 10 10 9 6 6 7 3 5 4 4 2 2 2 5 5 2 5 5 3 6 5 5 8 9 10 12 14 15 15 14 13 11 13 16
31 24 12 10 20 29 32 31 18 1 3 0 4 4 2 2 2 2 3 4 3 3 2 0 2 1 2 2 3 6 7 4 5 4 2 0 2 5 5 4 5 6 7 6 2 3 3 4 5 8 12 7 5 8 7 7 7 6 5 7 5 2 4 3 3 4 4 4 4 3 5 5 6 6 3 5 9 10 11 11 12 14 15 14 13 13 14 15
22 13 4 10 26 32 34 24 6 4 3 0 4 3 2 2 5 5 5 5 3 2 1 3 2 2 2 2 2 4 4 3 4 3 1 2 1 4 8 5 6 10 11 5 1 2 2 3 5 5 8 6 5 6 6 6 7 3 3 5 4 3 4 4 4 4 4 4 3 3 5 4 7 7 6 8 10 10 11 10 11 14 16 14 14 14 13 13
13 4 3 15 29 34 31 13 3 3 2 2 3 2 4 4 6 7 8 7 3 2 2 2 2 2 2 3 3 3 2 3 4 2 1 3 1 2 9 8 7 12 13 5 1 2 1 4 5 3 2 5 4 5 9 10 8 5 4 5 4 2 2 3 2 3 4 4 3 3 5 5 4 5 9 11 11 11 12 11 11 14 15 15 15 15 13 13
7 0 5 19 30 33 24 6 3 4 1 1 3 4 7 7 5 7 8 6 3 2 3 3 3 3 2 3 3 2 2 2 3 2 1 3 4 2 7 8 7 10 9 4 4 3 1 2 3 2 2 3 4 8 13 15 13 10 8 8 8 4 4 3 4 3 3 4 5 4 6 8 4 5 8 10 10 11 12 12 11 11 13 13 14 15 14 13
4 1 11 22 28 27 14 5 3 4 1 4 7 6 9 8 5 6 6 6 4 2 3 2 3 2 1 2 1 2 3 1 2 2 2 4 5 3 7 10 9 8 5 3 2 2 1 1 3 3 3 4 6 8 10 13 13 12 10 9 9 6 6 6 7 4 3 3 1 3 5 9 6 7 9 9 10 10 10 11 10 11 12 13 12 13 13 12
3 6 16 22 26 19 6 5 5 4 3 6 7 7 8 7 6 7 5 5 5 2 3 2 1 3 2 2 2 2 3 2 2 3 4 4 3 3 9 12 10 8 5 3 3 3 2 1 3 3 3 3 5 6 5 3 6 8 8 7 8 8 9 8 6 4 4 4 2 2 7 8 5 5 8 8 8 7 7 8 10 10 9 10 11 12 11 12
4 5 9 17 24 15 3 5 6 4 5 9 8 8 8 7 8 9 6 6 5 3 3 2 2 2 2 3 2 3 3 2 3 4 4 2 1 3 10 13 10 8 5 5 5 4 3 1 1 0 2 4 4 5 5 3 2 4 5 7 9 11 11 7 3 4 3 7 8 6 8 7 5 4 4 7 7 7 8 7 8 9 8 7 8 9 10 11
4 2 4 10 17 10 4 5 5 4 7 9 9 8 7 6 8 11 11 6 6 5 3 3 4 2 3 4 2 3 5 3 2 3 4 3 1 3 9 11 8 6 6 10 10 3 2 1 2 2 5 7 4 5 5 2 3 3 3 8 11 13 14 9 4 4 6 7 8 7 7 6 6 4 5 7 6 7 10 8 5 7 8 7 7 8 9 9
4 3 3 5 7 4 3 4 5 5 6 7 7 5 6 7 6 9 11 7 8 10 5 2 5 4 5 6 3 3 5 4 3 3 3 3 2 3 7 8 6 7 9 13 14 4 1 1 1 2 4 4 2 4 4 2 4 4 4 6 11 13 15 12 8 8 6 5 7 9 7 5 6 5 6 8 7 8 9 8 6 7 8 8 7 7 6 8
1 3 4 4 4 3 3 4 5 5 6 6 4 3 6 8 6 7 7 5 9 11 6 2 7 7 6 6 4 2 4 4 2 2 3 3 3 4 7 5 3 9 11 10 10 4 3 3 2 1 1 2 4 9 10 6 4 6 8 8 10 12 15 16 14 10 8 6 11 11 8 7 8 7 8 9 8 8 8 9 9 8 7 7 7 6 6 8
0 1 2 2 2 2 4 5 7 7 8 7 3 3 6 8 7 7 5 5 8 9 4 3 8 10 7 6 4 1 2 3 2 2 4 3 4 6 6 4 2 9 10 6 5 3 3 2 3 4 6 7 6 10 12 8 5 7 10 12 12 12 16 19 17 11 10 10 14 10 9 10 8 7 9 9 8 9 10 9 7 6 6 7 7 7 8 8
1 2 2 1 1 3 4 7 8 8 9 8 3 3 7 8 8 7 4 4 6 6 4 4 8 11 10 6 3 2 2 2 2 2 2 3 5 4 4 3 2 7 9 6 4 2 1 2 3 5 7 9 8 9 9 7 6 7 10 12 13 15 17 18 16 13 13 13 12 7 10 11 9 8 9 10 9 7 4 2 3 5 7 7 6 7 8 8
1 1 1 2 3 4 4 5 5 5 6 6 3 3 5 7 8 9 5 3 5 4 5 6 8 10 9 7 4 2 3 2 2 2 1 3 4 2 1 2 2 5 7 4 4 3 1 2 4 4 5 7 8 7 7 8 9 10 11 11 12 14 16 16 13 11 11 11 10 9 9 9 7 6 8 10 8 5 4 4 6 7 7 7 7 8 9 10
5 3 2 3 4 4 3 3 2 4 4 3 2 3 6 6 8 10 9 4 5 3 4 8 10 8 6 5 5 5 5 4 3 4 4 3 4 3 2 2 3 5 5 2 3 3 0 1 3 4 3 5 6 6 10 13 13 12 13 13 11 11 11 11 9 9 10 10 10 12 11 8 7 6 7 10 9 8 8 9 9 8 7 8 9 9 10 11
5 4 2 2 3 3 2 3 2 2 3 2 3 5 6 7 8 9 7 3 2 3 5 7 9 7 4 5 5 4 5 6 6 7 6 6 6 6 5 6 5 4 2 2 2 2 2 1 1 2 1 5 7 8 9 11 10 9 9 8 8 10 10 8 8 9 12 12 11 12 11 8 8 8 8 10 10 10 10 9 9 9 8 8 9 9 10 10
Wind_Direction
350 348 346 345 343 342 341 340 339 338 338 338 339 340 340 341 341 339 338 336 334 332 330 329 329 326 322 323 324 319 317 314 309 302 253 260 265 258 250 250 244 203 197 176 149 147 149 154 156 153 154 159 151 148 180 218 181 171 183 224 242 237 244 206 207 219 224 168 154 171 163 143 148 159 140 107 96 123 135 100 103 68 58 114 128 135 144 149
349 347 345 343 341 341 340 339 340 341 339 337 339 339 338 339 338 336 335 334 332 330 330 329 328 324 321 323 323 319 320 314 308 283 262 271 275 266 255 244 234 203 183 163 153 154 155 160 159 151 150 160 157 153 167 184 190 192 168 210 234 226 220 205 225 270 334 211 169 173 170 157 157 157 156 139 137 143 137 118 105 89 95 116 129 137 146 151
348 346 344 342 341 341 340 340 341 338 336 336 337 338 337 336 335 334 333 332 331 329 328 327 326 323 319 321 324 321 319 318 307 269 270 288 295 275 250 231 218 202 189 172 165 164 158 154 156 148 143 164 163 166 172 173 187 200 185 219 243 237 244 267 263 274 291 183 167 169 165 160 154 148 161 145 146 165 168 159 141 140 143 138 141 143 149 155
348 345 343 342 340 341 340 340 338 334 334 335 336 337 336 335 333 331 330 330 328 328 325 324 325 320 317 323 323 316 318 321 280 245 260 296 1 339 245 216 204 194 191 177 169 164 154 148 154 150 143 170 185 185 192 187 172 182 200 220 242 228 252 271 259 277 271 163 161 158 146 152 150 150 164 140 140 194 205 191 174 162 158 151 151 152 155 159
347 344 343 341 339 340 339 338 336 334 335 336 337 336 335 334 332 328 327 326 325 324 322 322 322 317 318 325 319 313 331 329 283 243 231 282 318 335 270 201 189 183 178 166 160 154 151 148 152 156 156 173 179 196 216 203 191 213 216 226 251 275 278 260 170 296 321 124 140 150 159 161 145 163 175 156 160 205 207 202 184 160 158 158 158 156 159 163
346 344 343 340 339 339 337 336 335 335 336 337 338 336 334 332 329 327 324 322 320 319 319 319 319 315 314 324 323 305 228 260 297 261 259 306 310 321 260 183 177 173 168 156 148 145 147 150 155 167 176 184 194 202 210 198 203 243 238 227 238 253 262 254 162 271 84 115 158 170 170 149 154 188 186 178 185 218 200 188 174 160 158 158 157 158 163 168
345 344 342 340 339 338 338 336 333 334 335 337 337 335 333 331 328 325 321 318 316 316 316 315 315 311 310 330 71 266 121 253 270 264 283 302 304 313 171 170 170 168 164 149 142 146 150 159 169 171 171 185 212 215 225 209 207 233 250 239 239 243 253 263 244 191 137 160 184 167 144 158 186 192 176 200 217 357 141 149 152 157 153 153 158 164 168 169
345 344 341 340 339 339 339 335 334 335 336 338 337 335 333 329 326 321 319 315 312 312 312 310 309 304 304 341 141 295 230 250 264 276 291 292 298 243 151 160 168 166 159 151 150 153 152 165 179 168 174 199 205 197 204 224 222 233 249 254 261 259 259 272 269 217 184 193 192 158 162 189 197 167 171 207 221 84 125 130 138 149 151 158 165 168 169 170
344 342 340 340 339 340 339 336 337 337 337 338 336 335 332 327 323 319 318 313 309 306 304 303 297 287 275 230 98 290 253 253 270 291 285 261 205 150 151 157 170 167 157 159 158 154 155 170 184 175 176 206 223 220 184 196 227 228 244 259 261 265 267 273 276 253 201 200 196 175 191 205 190 133 189 207 173 125 132 134 143 152 162 166 168 169 170 173
342 341 340 339 339 340 340 338 340 341 340 338 336 334 330 326 323 319 315 310 303 296 294 291 277 240 197 190 143 246 254 250 320 360 246 205 159 155 156 161 171 167 159 163 159 159 164 171 180 182 174 213 228 240 214 203 241 241 247 262 256 262 269 261 266 265 228 195 191 187 206 208 176 158 216 197 147 141 135 146 153 157 169 171 171 172 172 177
342 342 340 339 339 340 341 341 341 342 340 338 337 334 330 327 323 317 310 302 294 286 282 266 230 189 180 169 160 229 246 186 132 63 90 156 157 164 168 169 172 169 159 159 167 173 178 174 166 163 224 234 224 239 252 230 253 275 275 284 271 271 275 258 261 266 242 208 197 188 204 191 164 218 214 158 150 149 143 156 161 163 173 173 174 173 175 182
342 342 341 341 340 339 340 341 342 342 340 339 336 333 332 329 321 314 306 298 289 279 262 226 198 178 165 141 220 233 229 173 159 101 99 118 141 173 180 177 177 174 164 159 183 185 185 176 163 168 198 175 174 226 259 226 232 281 282 291 288 307 294 269 260 249 178 213 192 155 166 173 199 224 182 144 155 150 151 161 166 170 172 173 177 175 178 182
341 341 341 340 339 339 339 341 343 342 341 339 336 335 334 328 320 315 308 299 286 263 225 201 183 168 159 222 237 241 241 223 209 215 237 257 277 229 204 191 186 183 177 174 188 193 190 175 169 185 197 148 171 228 263 227 147 302 284 256 289 331 303 275 258 261 192 193 156 134 163 218 215 217 150 149 160 150 156 166 170 173 173 175 179 181 182 182
341 340 340 340 340 339 340 342 343 343 341 339 336 337 334 328 326 324 317 306 275 211 179 169 163 155 164 254 255 265 258 251 248 250 257 261 245 221 213 202 196 194 193 185 186 197 193 178 171 184 273 210 233 315 326 343 31 326 317 280 291 298 280 294 342 335 333 200 155 152 226 232 219 207 159 162 162 157 165 171 174 174 175 178 179 185 188 187
341 341 340 340 340 340 341 343 344 343 341 339 338 339 335 333 343 349 353 1 160 159 145 142 153 149 145 274 272 274 253 250 248 242 248 238 189 195 206 196 197 199 201 195 161 174 181 169 143 151 286 265 263 305 313 333 352 18 319 295 310 211 274 308 290 197 236 232 168 166 228 258 229 195 168 167 165 166 169 172 178 176 178 182 181 185 190 191
340 342 342 343 343 343 344 344 344 343 341 339 340 339 338 348 15 34 53 69 104 134 132 138 162 163 235 279 277 259 222 226 242 243 243 224 201 201 191 177 183 192 195 193 147 122 151 150 130 180 218 253 201 204 271 303 303 12 169 249 270 237 278 312 302 220 211 215 178 192 218 268 239 183 168 170 171 172 171 175 181 180 180 183 185 185 186 189
341 343 344 345 344 345 345 344 345 343 341 342 342 342 351 18 55 67 71 82 97 115 113 146 167 168 266 268 262 249 231 220 234 244 242 226 215 199 169 153 157 167 153 137 150 125 128 144 167 175 180 206 169 148 201 241 244 285 163 227 250 228 223 275 302 296 207 171 196 218 227 253 266 174 169 173 175 175 175 180 182 183 183 183 188 186 186 189
342 344 345 344 343 346 345 345 345 343 341 344 345 348 26 41 85 69 74 90 89 102 76 113 161 171 266 258 270 263 260 240 255 261 244 223 209 192 169 147 128 130 108 81 149 148 144 169 163 171 190 194 175 167 202 218 194 193 198 225 261 239 218 241 266 298 347 230 208 216 232 251 278 175 176 177 178 179 182 184 183 184 184 184 189 190 189 192
343 344 345 343 345 347 345 345 345 343 343 349 350 2 31 12 248 2 49 73 62 170 258 170 178 206 260 242 260 280 305 309 297 272 227 191 186 187 176 142 116 123 126 132 175 170 165 147 166 198 209 193 196 198 201 176 146 177 183 191 239 249 245 238 251 278 323 311 260 224 230 241 232 187 189 183 180 184 186 182 181 185 186 186 192 196 194 196
344 345 345 345 347 346 345 345 344 344 351 354 356 19 24 6 329 312 330 310 257 239 266 239 213 252 281 283 297 310 309 289 272 259 199 174 160 161 165 116 102 125 146 150 179 177 157 183 209 207 202 194 201 206 197 173 176 211 217 227 241 253 262 253 269 281 279 283 271 236 229 242 226 199 199 185 180 188 187 182 184 188 189 190 193 198 199 202
346 346 347 347 346 345 346 345 343 348 356 358 11 36 38 26 358 318 325 299 260 241 252 244 227 240 256 264 271 42 5 305 275 275 216 172 147 143 174 161 144 186 181 153 149 127 163 204 217 201 187 185 190 189 182 184 203 226 241 263 261 251 264 257 249 269 250 230 276 270 254 254 232 206 200 184 184 193 189 184 189 192 193 194 196 200 202 202
348 347 347 347 346 346 345 344 344 348 354 6 36 53 82 57 345 296 305 296 276 244 239 245 238 242 247 249 252 259 14 288 277 271 218 168 159 167 177 170 174 189 174 153 142 149 204 222 207 185 176 170 178 175 170 184 197 209 224 245 253 250 274 280 245 259 227 204 271 278 261 262 246 193 183 189 197 201 196 191 191 191 191 193 197 201 200 195
349 347 348 347 346 346 344 344 345 347 353 358 3 45 68 6 348 328 291 275 283 253 230 239 231 237 241 244 241 215 214 227 240 260 194 162 182 186 161 172 184 177 164 181 190 182 210 236 190 172 170 168 179 177 165 177 195 198 201 219 243 243 257 275 278 304 273 216 258 274 259 278 286 178 187 199 201 204 207 208 207 198 195 197 198 198 196 192
349 348 347 347 347 346 344 344 346 348 348 344 310 105 12 344 351 352 304 248 283 254 224 226 216 226 232 225 193 184 208 207 196 243 187 164 166 154 166 179 171 175 191 195 200 199 221 251 176 162 170 178 189 187 165 175 214 215 206 218 240 237 214 234 278 337 333 294 270 291 325 305 246 186 207 205 197 202 205 208 219 218 210 209 205 203 201 198
348 348 347 347 348 347 345 346 350 344 339 341 136 1 339 337 346 350 324 265 288 268 233 221 209 220 211 181 167 173 191 216 208 220 179 169 168 143 166 175 160 190 201 191 195 215 232 239 149 156 171 178 190 203 183 178 208 235 223 220 229 225 228 247 328 6 344 310 278 227 282 294 269 215 223 198 190 206 204 201 210 212 208 210 211 207 207 207
346 347 346 346 347 347 350 352 335 338 335 338 347 329 329 332 339 341 293 332 293 262 201 183 194 192 174 151 162 148 121 242 218 197 181 178 176 155 157 165 172 199 191 177 190 228 216 178 147 169 178 176 191 212 197 171 195 242 218 196 206 204 215 242 237 350 267 261 269 169 183 276 305 260 231 192 194 209 207 209 213 209 204 206 209 206 205 207
344 345 344 345 347 349 354 327 327 337 342 319 325 327 325 328 337 337 192 350 291 234 161 122 350 175 171 167 169 146 151 252 177 185 195 180 173 157 166 171 177 191 163 138 210 219 166 161 171 182 177 182 200 212 188 167 192 236 162 147 172 183 194 209 190 201 226 253 274 213 184 259 282 253 225 183 194 216 214 219 219 210 208 208 209 208 205 207
341 342 343 343 345 347 342 317 325 330 322 322 324 324 323 328 336 328 108 346 267 226 133 239 128 152 133 164 178 182 220 145 93 204 193 174 176 160 178 188 180 179 160 162 204 197 154 173 189 187 183 194 203 198 176 171 200 220 133 139 158 166 181 170 163 213 231 294 276 244 173 228 265 265 246 174 188 216 217 221 223 215 213 209 208 208 207 209
338 340 342 341 343 347 338 321 317 319 326 328 325 323 322 325 331 119 84 267 254 340 110 189 127 139 53 135 205 257 311 35 38 207 165 176 194 173 185 191 169 172 180 190 204 186 168 189 190 185 193 209 203 184 171 178 205 207 147 142 78 116 123 122 162 217 264 237 257 251 167 206 267 265 231 177 193 215 217 219 222 219 218 213 209 208 208 209
337 338 341 341 341 343 337 325 324 332 333 330 324 321 321 319 92 112 190 235 269 354 48 57 38 326 59 125 233 277 279 301 356 112 150 179 201 182 150 124 127 147 187 212 216 214 239 190 180 185 200 207 200 186 180 181 186 161 158 218 291 339 31 52 133 100 276 256 250 238 181 184 266 240 178 189 199 204 211 217 221 222 224 220 214 209 207 209
336 338 340 341 340 338 331 323 336 341 336 331 327 324 324 5 95 160 212 248 319 342 16 21 18 4 20 171 256 263 247 283 355 134 166 173 170 178 141 106 114 129 168 224 224 228 269 131 169 208 203 190 177 193 201 178 171 153 137 151 213 309 351 339 3 81 233 252 235 209 170 169 243 234 180 209 210 198 203 209 212 216 219 218 214 210 208 208
336 338 340 341 340 335 320 323 340 344 338 334 331 333 54 130 238 209 236 324 340 341 19 337 329 358 320 270 245 216 214 247 200 162 174 182 178 183 177 172 170 158 192 214 196 210 236 219 213 241 207 180 162 190 208 155 169 176 139 126 154 263 302 217 235 188 231 253 212 178 155 183 242 236 192 215 218 209 208 208 209 213 216 215 211 210 208 205
336 338 341 348 352 345 340 342 345 344 339 335 330 4 91 180 232 211 235 296 359 345 351 277 306 314 280 289 287 236 208 214 202 177 182 183 181 192 196 183 172 164 181 187 159 164 227 244 226 215 216 180 167 176 192 171 176 179 164 148 162 182 193 212 231 239 248 263 246 172 150 233 274 260 207 207 211 214 212 213 214 213 215 214 210 207 204 201
335 339 344 353 9 2 355 351 345 342 337 335 340 40 137 208 247 218 235 270 22 2 345 313 312 304 261 272 326 357 8 267 287 169 174 159 171 197 201 195 189 169 111 148 166 176 200 237 216 203 197 170 181 192 178 154 165 183 158 138 168 180 178 198 204 210 237 263 275 174 157 221 252 248 219 204 204 208 209 217 218 219 221 217 214 209 201 201
335 340 344 350 5 359 354 347 342 342 337 335 9 181 199 214 260 42 263 299 3 3 333 313 305 314 314 297 351 16 31 334 356 354 177 160 171 194 192 201 205 177 136 170 191 178 204 236 228 205 186 166 184 196 152 132 162 192 128 133 205 189 154 199 199 180 188 317 286 212 203 229 226 257 261 223 213 207 206 217 217 224 229 222 220 212 200 203
336 340 345 347 356 353 348 342 340 338 333 2 77 214 229 231 239 88 342 347 9 338 326 321 329 34 334 320 357 357 350 357 2 1 181 154 134 135 212 210 207 195 178 189 203 159 194 237 219 147 181 191 185 173 162 165 173 167 153 185 204 139 138 219 247 184 103 281 265 219 249 288 297 281 264 216 218 215 208 216 216 223 229 225 223 212 200 204
338 339 339 329 346 349 343 340 339 333 53 76 207 229 274 282 233 67 11 4 337 319 344 352 343 21 353 339 349 347 343 343 360 11 315 188 72 7 313 310 338 266 280 297 239 181 168 244 231 150 195 223 184 159 178 180 150 136 189 195 119 80 143 188 246 273 230 250 276 239 235 267 272 273 270 182 202 225 216 212 216 222 226 226 226 215 205 205
335 333 318 312 342 345 340 338 338 339 127 140 237 261 297 285 321 6 8 351 312 304 38 135 284 31 45 354 331 344 350 352 356 358 332 247 46 15 351 322 341 347 337 333 279 212 182 248 258 186 192 207 139 150 189 199 179 171 183 171 130 131 190 164 189 224 216 235 274 272 253 240 214 234 265 191 207 225 224 215 215 221 223 225 227 220 212 207
339 334 291 333 346 343 339 340 339 141 98 199 236 267 288 294 321 333 338 335 303 285 293 220 245 15 12 349 347 340 350 358 335 328 11 22 42 32 22 340 310 331 328 322 191 226 206 205 260 233 188 161 131 164 190 211 227 225 128 157 158 167 179 171 182 183 189 220 245 288 283 248 220 206 185 207 221 221 223 220 215 218 219 218 221 221 215 206
347 337 265 337 346 343 342 353 103 87 54 208 229 281 324 320 312 327 340 339 318 284 300 284 326 352 322 335 347 326 341 357 333 311 34 21 76 57 17 1 319 320 321 318 164 266 245 194 242 282 155 147 161 198 191 191 209 208 186 193 187 167 158 170 201 170 168 197 196 245 266 251 234 199 183 202 219 218 217 218 218 220 220 217 216 219 217 206
339 222 290 335 346 343 345 28 85 6 11 285 334 324 324 323 310 327 341 346 339 270 267 287 297 293 286 322 336 335 356 347 312 303 5 22 47 35 357 352 321 313 321 349 24 6 2 203 227 239 183 183 207 209 197 193 194 190 197 203 193 182 133 149 242 240 174 194 181 188 253 260 246 197 190 200 212 219 217 214 220 226 224 223 221 220 218 210
333 299 298 328 344 341 346 72 34 354 52 343 340 317 312 313 307 326 339 349 353 307 286 287 281 310 338 306 326 7 11 335 286 325 64 56 53 32 345 341 326 319 337 12 10 356 11 223 232 230 217 215 227 222 212 209 201 193 200 199 188 178 152 176 228 225 186 224 158 137 252 266 248 196 193 203 209 216 219 211 215 226 224 223 227 226 223 219
332 301 297 326 346 339 346 75 10 1 25 340 334 325 323 323 329 345 350 343 349 339 329 334 347 30 37 330 352 10 2 19 12 27 72 78 68 33 353 348 345 349 7 17 346 327 329 262 223 272 303 278 273 289 298 270 200 200 216 200 183 189 190 202 211 174 182 216 169 196 252 267 271 217 203 216 217 223 241 223 216 229 229 217 222 227 224 223
311 291 291 335 350 348 23 58 7 357 354 342 339 338 342 346 347 349 338 331 350 347 325 331 352 28 2 326 10 20 1 34 51 45 58 57 101 44 3 352 353 5 19 10 350 329 322 307 167 120 261 241 268 290 298 309 205 209 225 207 200 198 194 205 187 139 206 208 177 202 239 245 280 282 247 252 247 246 255 239 220 237 245 225 219 225 225 226
310 282 251 326 348 3 55 50 21 3 347 343 336 334 346 348 344 341 330 333 9 358 317 298 316 3 19 2 33 32 16 46 53 29 41 20 37 60 4 344 344 4 6 1 357 333 239 292 115 141 213 213 220 225 221 262 272 256 234 210 209 202 195 200 192 186 224 209 180 203 236 252 288 291 252 253 255 254 260 262 249 243 248 242 227 222 221 221
327 328 294 319 346 23 53 43 37 9 344 346 331 323 342 337 337 345 339 349 11 355 329 309 342 10 24 14 29 34 18 27 14 357 22 6 1 31 350 330 335 351 356 5 1 347 152 6 125 163 219 220 251 256 241 307 292 287 294 235 214 208 202 203 211 210 200 184 205 219 211 230 267 250 225 236 236 238 255 270 266 244 248 255 243 234 229 223
326 314 327 338 335 356 10 19 25 359 334 340 323 292 328 331 339 359 354 356 357 343 326 33 36 31 16 4 12 36 11 1 343 8 28 8 353 348 327 303 330 354 1 12 357 351 71 354 317 48 307 275 306 294 287 294 265 259 282 266 232 215 205 208 220 208 152 170 231 230 188 199 246 240 225 230 224 228 244 252 250 243 248 256 251 248 246 240
284 303 334 355 319 339 349 334 340 335 321 326 310 281 322 336 345 357 352 337 341 345 344 18 30 24 6 353 351 345 7 1 352 32 30 3 350 348 332 305 353 5 7 14 355 19 105 257 300 11 337 308 300 288 281 281 255 241 255 258 251 235 215 214 220 199 163 203 237 226 180 193 230 236 234 232 214 213 226 230 232 243 258 262 258 254 245 235
287 279 307 359 311 302 303 302 313 317 316 324 321 309 334 342 336 336 348 332 328 349 12 355 360 1 349 343 353 346 357 8 360 4 15 360 353 352 332 315 346 9 8 6 350 7 116 265 320 355 331 311 297 282 277 284 280 268 263 256 253 249 233 227 225 207 199 223 242 223 185 198 219 221 229 237 227 219 233 231 218 237 254 258 255 260 258 242
264 263 305 321 291 279 276 282 299 306 313 322 312 311 340 340 330 329 334 317 298 326 9 355 344 346 338 335 345 306 289 317 311 296 331 353 342 328 289 299 328 357 0 353 329 337 18 317 333 1 343 310 297 298 302 303 297 286 274 260 254 255 249 241 233 218 215 227 238 234 212 214 240 242 242 254 266 291 298 263 243 239 244 248 245 248 253 249
261 280 293 294 294 295 284 273 288 299 304 319 318 332 341 333 327 328 320 281 238 265 355 344 330 332 330 319 310 288 293 316 291 275 289 288 274 272 284 296 327 344 344 322 311 331 358 292 343 25 5 294 293 321 322 316 312 291 269 261 255 249 250 249 232 214 215 215 222 235 232 230 244 248 252 263 271 276 262 249 250 250 243 239 238 237 239 243
266 284 266 258 291 298 282 273 274 281 289 319 330 329 326 313 315 320 312 281 240 290 331 327 316 317 312 295 294 297 315 316 294 284 283 261 246 250 255 256 262 268 262 280 314 293 219 218 342 22 2 288 291 310 321 321 313 279 260 261 254 237 233 247 246 224 214 207 211 227 227 218 212 205 221 247 254 253 247 241 240 241 238 236 236 237 237 237